TIMESTAMP,CO2_1_1_1,H2O_1_1_1,TAU_1_1_1,TAU_SSITC_TEST_1_1_1,H_1_1_1,H_SSITC_TEST_1_1_1,LE_1_1_1,LE_SSITC_TEST_1_1_1,FC_1_1_1,FC_SSITC_TEST_1_1_1,WD_0_0_1,WS_0_0_1,WS_MAX_0_0_1,U_SIGMA_0_0_1,V_SIGMA_0_0_1,W_SIGMA_0_0_1,USTAR_0_0_1,MO_LENGTH_0_0_1,ZL_0_0_1,FETCH_MAX_0_0_1,FETCH_70_0_0_1,FETCH_80_0_0_1,FETCH_90_0_0_1,PA_0_0_1,RH_0_0_1,TA_0_0_1,VPD_0_0_1,T_SONIC_0_0_1,T_SONIC_SIGMA_0_0_1
[yyyymmddHHMMSS],[mmolCO2 mol-1],[mmolH2O mol-1],[kg m-1 s-2],[#],[W m-2],[#],[W m-2],[#],[umolCO2 m-2 s-1],[#],[Decimal degrees],[m s-1],[m s-1],[m s-1],[m s-1],[m s-1],[m s-1],[m],[#],[m],[m],[m],[m],[kPa],[%],[deg C],[hPa],[deg C],[deg C]
20220820003000,406.09043564757087,18.613340967901895,0.13902938404002815,0,-28.313740128859166,0,34.360858110068705,0,3.1986128519126988,1,192.36396393048187,1.8172209161843160,5.4219857208081219,0.73809218624552808,0.70191832513379782,0.53831550885892188,0.35553675030789500,132.12761498903964,0.14380037058548362,89.853083415912025,164.28009365542371,196.60131438417187,246.12151604832854,93.449537030798510,71.167586206896559,20.770344827586200,7.0488250646724575,21.669571945078587,0.23318453647636345
20220820010000,409.99296619009738,18.407777177736058,3.0578153071549825E-002,0,-22.263090931094947,0,13.892740976160855,0,2.7430030983551461,0,189.74438682985871,1.6999985595561629,3.4220272087911128,0.43988874791854354,0.37449832121279708,0.28470470186303776,0.16644376797222890,17.245203569187531,1.1017556228763696,152.12764520337251,1322.0000000000000,2384.0000000000000,6237.0000000000000,93.490955970703126,74.376333333333335,19.883666666666670,5.9305359135848335,20.836883945041279,0.34857574607006475
20220820013000,411.00722603570478,18.375981807117807,7.0330941081298420E-003,0,-7.8851252980897604,0,1.8638722355236312,1,1.0582124848829964,0,197.54701998563306,1.6484718499708761,2.9029210741931619,0.35179608188364486,0.27033162917653264,0.17333203189739843,7.9771221325213873E-002,5.3613986832170584,3.5438513571983092,585.63999348834489,4856.0000000000000,8639.0000000000000,-9999.,93.521637997395842,75.620666666666665,19.593666666666650,5.5419226494424905,20.623994054158572,0.27082581727175381
20220820020000,414.95370653461214,18.519084700535068,3.7411591734576637E-002,1,-22.545420954562513,1,35.440101386334909,1,10.112124774682556,1,134.37699785267719,1.2814927830671148,2.0946732719522076,0.29824533368589273,0.52315478119548509,0.11817902684423125,0.18384372553640732,22.960646854981924,0.82750281906267131,71.962240560442197,591.00000000000000,1049.0000000000000,2669.0000000000000,93.563825487624683,77.800666666666672,19.268666666666661,4.9453904003054276,20.300246107302087,0.31320497057016927
20220820023000,424.76328658451354,19.164804771827939,5.9839908926113072E-002,1,-37.176508551393169,1,32.252223379358973,1,16.895237010864943,1,101.42050306942382,1.1572206624356423,2.2248180644145825,0.25799747044008176,0.54409528292493581,0.14873152076785567,0.23220678106155701,28.064646385992173,0.67700835202696219,178.82671694144435,326.95227242507684,391.27836531726837,489.83408259731846,93.583174320312494,84.513333333333335,18.495666666666637,3.2873910660562617,19.668312533908534,0.37673795281815853
20220820030000,419.59331261290356,18.847503720065660,1.4129638749062989E-002,0,-15.326816799429020,0,-1.3739266893202744,1,1.4485601351028987,0,153.84173492497627,1.7754023397656868,3.0527860235871938,0.38944620692189130,0.26556750405916180,0.18798186592242636,0.11284650004548742,7.8125778271597044,2.4319757729578395,345.55451549469467,2899.0000000000000,5174.0000000000000,-9999.,93.583863458116326,82.620000000000005,18.591000000000008,3.7113838092273865,19.655303995768350,0.34372678218033759
20220820033000,423.67367086788022,18.951686545138767,2.7045391632811559E-002,0,-23.054461291649705,0,-2.0344256051405321,1,5.1903242306730135,0,145.00022864404772,1.8115070925403687,3.4385292783544346,0.42165823256892532,0.34325622501291281,0.24501471083917972,0.15591991137241737,13.699819464481777,1.3868795898558735,194.49012826229065,1683.0000000000000,3031.0000000000000,7910.0000000000000,93.578232874999998,87.299999999999997,17.800333333333356,2.5806473467942648,18.862180631849469,0.29469252734934176
20220820040000,418.51507683803788,18.730653396596754,1.1723311391150508E-002,0,-12.172696015690661,0,-2.1054870825502898,0,0.51344730809916772,2,147.74943724389044,1.7013479581278761,2.6682963395004511,0.28820739132925144,0.26341660651619719,0.18193261579683015,0.10262638937664090,7.3980978469145624,2.5682277246338541,383.18036028446431,3221.0000000000000,5753.0000000000000,-9999.,93.573081429687505,87.116666666666660,17.646666666666647,2.5926705341505429,18.727252897474500,0.23556119585675808
20220820043000,432.38372097500411,19.241742239693735,1.5084460516555213E-002,1,-8.3491945507039738,1,8.4996564932538465,1,6.7758540481161829,1,111.04990513941540,1.5180158143176274,2.4455762975575728,0.25837022321610137,0.29445357073794654,9.9746826838060090E-002,0.11637745842084994,15.730283483745419,1.2078612581669796,244.15559096140265,2232.0000000000000,4083.0000000000000,-9999.,93.575175158203123,90.769999999999996,17.422666666666657,1.8313902011471692,18.619517556932237,0.23021860057901114
20220820050000,427.80509332645966,19.116794322668817,4.9958805968970420E-002,0,-15.027482516421674,0,-0.88013981015905784,2,6.5779438061183058,1,122.03547129712351,1.5584263506462788,3.3102269941191271,0.45774191610608023,0.48373523465084062,0.26882322193892433,0.21172781001061883,52.638666458593470,0.36095139330601667,103.44364104848793,189.12796749381468,226.33787313319633,283.34815893367903,93.603279686371351,90.640000000000001,17.346999999999980,1.8483259658249995,18.460344283692166,0.23031936457821225
20220820053000,427.74323636473588,19.134429422550845,2.6306099060516910E-002,0,-13.439007390181445,0,3.1555859198081575,2,6.0767273322354489,1,129.43333176569359,1.4140991600855537,3.3301021909869446,0.44359060227462999,0.43063675894946474,0.21579908406098430,0.15360080939645046,22.477384875817314,0.84529406356526293,125.18387467843750,1099.0000000000000,1987.0000000000000,5225.0000000000000,93.625693322363844,91.176666666666662,17.271999999999991,1.7341075066649023,18.389848779168005,0.18960180932886658
20220820060000,430.41062506270060,19.060329828679357,2.6513409180671112E-002,1,-14.293647946447875,1,4.6174125042885947,2,9.1076027544135290,1,102.84736880677499,0.91186786585050383,2.0874246747991707,0.17529692858442444,0.35725089525076131,0.14105792622759447,0.15417767787928652,21.370302472974537,0.88908428058179867,50.280324097337456,394.00000000000000,690.00000000000000,1714.0000000000000,93.614682693793412,91.553333333333327,17.143666666666661,1.6466528694976272,18.254600381639307,0.20675816445107653
20220820063000,436.69983979813037,18.815725890962064,0.12127103962039823,1,-82.543777806843423,1,-41.672477256339441,1,34.335716365386972,1,73.805302869329154,0.87057474866962647,2.0215836153682263,0.24576408234365618,0.67600227877554420,0.19005182598536355,0.32940118579211497,36.089986858648352,0.52646181541756287,194.41841093015660,355.45886175219124,425.39347205732025,532.54214799002932,93.623548246744789,93.513333333333335,16.607666666666660,1.2222796935319185,17.640050733778310,0.47577613531856322
20220820070000,440.18556485130080,18.379288450361162,9.3486951236660693E-003,1,-12.261925753728658,1,-7.2184194509033794,1,6.4307003236644835,1,47.761367202622807,1.1774518647582426,2.1926329253426693,0.28894651409871097,0.28560945090730328,0.13559605668018215,9.1336538271958145E-002,5.1792676531466544,3.6684723154742902,200.68822177964597,1476.0000000000000,2541.0000000000000,6122.0000000000000,93.634656716796883,95.446666666666673,15.920333333333303,0.82120290002995266,17.006911271836998,0.39355688628153351
20220820073000,440.20479665159428,18.451917446562597,1.5140193579763634E-002,0,-1.0721230317348001,2,0.87306923976315898,2,-5.0418486910194993,1,46.528165658441623,1.6313732739419398,3.2150941622986626,0.35692042492892517,0.31712388434997935,0.17946246681246839,0.11625155917735250,122.12562123386054,0.15557750951879754,216.65131764512364,1890.0000000000000,3412.0000000000000,8942.0000000000000,93.621300359111075,95.590000000000003,15.956333333333305,0.79718437722176760,17.069529032482023,0.26788790997791762
20220820080000,440.26571487524063,18.438450384771915,3.3711366652036105E-002,1,-9.6146076774513070,1,0.41208523166225303,2,10.729288799190387,1,81.769228052881374,1.4329237600022600,2.3466049310547343,0.25112132656519581,0.35565419311635971,0.16509326319701034,0.17348550903213772,45.254004264676972,0.41985234917278813,101.50887708117430,908.00000000000000,1651.0000000000000,4381.0000000000000,93.604677094691027,95.466666666666669,15.962333333333333,0.81979325822493143,17.068098767870424,0.24172817068236088
20220820083000,439.00192821401470,18.523552909090004,5.2876571089769904E-002,1,-19.254160990967950,1,-5.6383696571540369,1,11.029395078614581,1,100.38856591832869,1.7502854550901719,3.9461627754408779,0.43607131565330221,0.36567807198236213,0.18799540754146579,0.21740380614769683,44.472597497712620,0.42722937424505586,140.65359022897536,257.15962210035559,307.75438817019244,385.27197452486456,93.606953221354175,93.823333333333338,16.307000000000016,1.1418056440234636,17.323537280612527,0.25369355797320953
20220820090000,435.85175553578546,18.699895588192298,0.11761296105976676,1,-35.193697619444109,1,-14.375725240579104,1,25.274503759262490,1,93.120492719005014,1.8532712086751004,3.9411643983410123,0.47540347454659099,0.53183098467976297,0.29304891271986844,0.32425899953394899,80.736392383997298,0.23533377500486355,135.77394566484583,248.23807555431441,297.07757554936308,371.90587208026147,93.615528782335076,94.450000000000003,16.352666666666664,1.0289507226353249,17.408600977579795,0.25330643817297710
20220820093000,430.51599499566771,18.796240317863532,0.15670808017972770,1,-15.245723553399042,1,-8.5304475581522023,1,4.2026503041680359,1,109.94635915423885,2.3043584482436934,4.6047828132715445,0.67743068802136297,0.61729417240556106,0.39550632695482107,0.37438972942868715,286.87862095505795,6.6230100858496926E-002,119.83710049973584,219.10043979642322,262.20726740317872,328.25238414253164,93.617863020616326,94.046666666666667,16.500999999999976,1.1141995642480607,17.499254036797424,0.15031317515770970
20220820100000,430.95927387266249,18.988193745922864,7.0468887525698728E-002,0,-12.642907573077903,0,-5.3918781183832545,1,5.9007017570054687,1,121.86709918951388,1.8384278711631450,4.4365934374518474,0.56273483433304183,0.45934490919116638,0.30450460711915345,0.25103990840733026,104.31174968103217,0.18214630718110675,107.29365001274719,196.16701177786123,234.76181134420460,293.89392995298874,93.636747546223958,95.076666666666668,16.492666666666651,0.92094087096996879,17.506338521321652,0.11052773937208629
20220820103000,428.89829407427010,19.153153540106558,0.14931149494441728,0,-26.631770050382951,0,0.14189682234971551,2,2.2033710643166491,1,138.69860012911943,2.0301664604313681,4.5699553626812506,0.74997807098605074,0.57870835360107520,0.42393107532936808,0.36551148447242143,152.85241849239313,0.12430290725786296,111.20889342372364,203.32532543596645,243.32848453413794,304.61838822836387,93.637819803385412,95.099999999999994,16.625000000000000,0.92432271507017960,17.640200670030424,0.14008826898984270
20220820110000,433.14535211695232,19.126708256649181,0.13255658725377806,1,-22.580680570716297,1,-2.8903610924452257,1,13.163727398646296,1,110.35597324920697,1.1112539952386633,3.5050532985674034,0.78844849810482931,0.83404922693527561,0.32766050437230665,0.34433247505447245,150.71462852528077,0.12606606396414236,130.28607805129002,238.20450329112970,285.06995216044396,356.87375247376070,93.635424076171873,95.616666666666660,16.517666666666685,0.82123564860536369,17.536535747104267,0.17425141510099124
20220820113000,436.29615615006952,18.919422160219611,6.0690598385328018E-002,1,-4.8938607337016071,1,-1.8074315777762153,1,2.2485303995229247,1,107.23466196494530,1.3073863058241806,2.9741893991516455,0.52926617758582040,0.50071673734415501,0.19740369326459606,0.23281594609888684,214.97035775335598,8.8384278644590863E-002,142.88309834666575,261.23587400463737,312.63262061035476,391.37894266782797,93.651220574754163,96.803333333333327,16.155666666666662,0.58525459157199744,17.179902694280827,0.14925632263445501
20220820120000,444.66818046373930,18.443011481341841,3.9621839558505144E-002,1,7.3919688107907842,1,5.7836558413439905,1,-4.8281918636953414,1,40.820238160346292,0.94744427259350728,2.4769822954454055,0.37621608942308382,0.44285077288663893,0.21912214730095964,0.18789416579707433,-74.826045280526287,-0.25392227971915560,50.244674137641383,184.00000000000000,264.00000000000000,463.00000000000000,93.687998524739584,97.516666666666666,15.648000000000025,0.44013757602329179,16.522630456712477,0.23231976316936129
20220820123000,449.35116590396677,18.265319307477579,7.4464810965803138E-002,1,18.862072219151788,0,2.9355644199210253,0,-0.95458447511795697,2,37.061904761210627,1.1316124717739597,3.3376576445512565,0.47274828023124232,0.42438416969407144,0.34568228701920856,0.25747801018179378,-75.461298938055151,-0.25178469317890706,98.924830292106492,180.86614023037751,216.45057599898806,270.97043619100975,93.698691370659731,97.763333333333335,15.459333333333348,0.39165397448484784,16.347238619486518,0.12779060866261580
20220820130000,444.30204489611822,18.774052913889388,5.7673425776127184E-002,1,26.370060710914178,0,14.223877518334429,0,-1.1311467132976927,1,32.257209694820233,1.2573317762036533,3.0603566449121344,0.48140656169143614,0.34138808497396234,0.31289973749471939,0.22687271227993633,-36.928994930298323,-0.51450086946210083,96.818099028997977,177.01436357394073,211.84098309871800,265.19977287406391,93.696976919921880,96.429999999999993,16.103000000000009,0.65141258554223902,17.040119473775235,0.36353980062854269
20220820133000,438.17858204932207,19.413968387603965,6.9483467723392853E-002,1,71.344951927567266,0,59.267172543719489,0,-8.1204179384485702,0,60.059742195678865,1.1839537938642968,3.4913865451393287,0.52790639258798988,0.47159650955438859,0.34738381537119190,0.24950877933127102,-18.159754442356327,-1.0462696541580905,96.089492665514513,175.68223876441186,210.24676993113565,263.20400716446721,93.704839411603317,93.056666666666672,17.192000000000007,1.3577297728575786,17.986408444715209,0.46065293635778004
20220820140000,429.96289037862920,19.875715538207853,8.0928832486006505E-002,1,70.677286342617506,0,66.029184390040328,0,-12.743052407212369,0,37.585017023936956,1.5599566512630636,4.1805980400579159,0.69780519598537261,0.58808825476987470,0.38327863051766897,0.26974725992000637,-23.164253322610961,-0.82022933074444615,94.538530724133921,172.84658568162763,206.85321742694578,258.95568212281091,93.695254181423607,89.793333333333337,18.129333333333307,2.1173696478957460,19.020882007175089,0.34740763377538941
20220820143000,420.41216463243484,20.184491719366857,0.17776705221475905,1,62.583491376635685,0,61.677112070358397,0,-5.2613903018940071,1,31.083991439413751,2.1528336942815267,5.6151383953701535,0.85672860022226205,0.66171111754872736,0.50427317706600683,0.40031822362703123,-85.512819429488090,-0.22218890836206101,104.09898476541649,190.32614481951848,227.77178537330479,285.14324690407847,93.700692192274303,86.986666666666665,18.883333333333326,2.8301728557244838,19.800221978081595,0.30148192031396881
20220820150000,415.89548803910424,19.979885767178878,0.36810185877559726,0,102.22166982061144,0,105.12928154899390,0,-8.3546274751850120,0,31.867271009329301,2.5272664212287594,6.5964338676485497,1.0565553898990483,0.69295260954808646,0.61778692260295864,0.57636288912012779,-156.25240465384843,-0.12159812863098897,118.45154748901659,216.56720699336057,259.17563473459842,324.45713978808851,93.706671651667904,84.230000000000004,19.237333333333311,3.5062662011190695,20.104310184855649,0.35224379269691630
20220820153000,411.73631641343019,19.864788990725202,0.53688043531734064,0,180.09781261046399,0,167.15725623304849,0,-13.662813663901474,0,49.474802413063088,2.4075191260116968,7.5349217072755854,1.3854968740538798,0.89205486399142664,0.75397688285279996,0.69650981144345103,-156.53949205850449,-0.12137512234228415,117.51958962680824,214.86329078852856,257.13648222368550,321.90436281906511,93.729084750217012,81.426666666666662,19.692666666666696,4.2481320514864231,20.481938398573163,0.42586985858519188
20220820160000,409.06074250026131,20.093614720904544,0.32496985306045478,0,87.027238698257165,0,84.239510716359945,0,-10.417834800053170,0,52.752301110079230,2.1663716314553856,6.3445086575594569,0.99920823866049968,0.89009674050195542,0.62574754905198449,0.54221489814302082,-152.85814009526428,-0.12429825450027598,111.65360016635212,204.13839119343234,244.30151658593260,305.83650889302720,93.746587726345496,80.452666666666673,20.074666666666644,4.5780137638529892,20.981194416470032,0.30936454667001811
20220820163000,406.00528506944374,20.363125484112320,0.39312485990034751,0,117.65229179672644,0,114.11598485870438,0,-13.951269103344375,0,42.358369418184139,2.4701883496079082,6.8059593712154971,1.1747705798715435,0.69571647071374687,0.60353654146715474,0.59649405064740668,-150.56180003215061,-0.12619402794030612,124.04433553855445,226.79260727617722,271.41282726945707,339.77665272363981,93.760313711588552,80.862333333333339,20.210333333333324,4.5198360889607851,21.119318294949096,0.46643885926637252
20220820170000,405.01897635411126,20.328495513786631,0.58548095659108335,0,318.35844982593125,0,216.01704148736820,0,-15.083926499221009,0,56.314855227574739,2.5262267943250367,7.6384838923179768,1.2241900329484403,1.2448837979921203,0.78662233621425648,0.72902718228954166,-101.56711114509055,-0.18706842978784874,117.82483976594894,215.42138539741634,257.80437893117215,322.74049024133194,93.741337378689238,76.736333333333334,21.029333333333341,5.7786978281409507,21.726375629001268,0.63072316971144049
20220820173000,404.56672045372170,20.374470862418779,0.41215583100823938,0,172.23503034254404,0,140.40207808653608,0,-16.233452866117219,0,34.656473559821990,2.6686360679172214,7.0849269339826035,1.3064711117812697,0.80913174838253266,0.67156021581222669,0.61202043068165923,-111.05270732661764,-0.17108993069497180,116.25179514581595,212.54535813496355,254.36250884562841,318.43167732139341,93.713808729166658,75.742999999999995,21.273666666666657,6.1164720081380572,22.108616376241116,0.57323365921125091
20220820180000,405.39719963610634,20.447878653179529,0.57002931160890291,0,100.10780071563582,0,87.806641361122360,0,-15.846286449849744,0,32.494782689587197,3.3769476877080224,9.5638720692811869,1.5135799360432824,0.94254717100646279,0.77746038705568088,0.71892857325734505,-309.69226585535949,-6.1351225376980748E-002,117.61450344153052,215.03682351304948,257.34415657406078,322.16434646220006,93.710319103298602,79.324666666666673,20.579999999999984,4.9957007949439705,21.531206802368104,0.37314896151463794
20220820183000,408.50833688651443,20.280594770165269,0.49600405675874853,0,-21.106630310469562,2,60.408617134732992,0,-1.3423802090304267,2,31.498429324532623,3.4613911177997698,9.3150416880906910,1.3502249696855191,1.0917206990894202,0.82109202551578298,0.66932700554435465,1185.6125611270149,1.6025471239895648E-002,106.32909335954264,194.40349458623703,232.65133167440587,291.25185984502889,93.748635459712531,83.719999999999999,19.582333333333338,3.6981736745334275,20.606833303370934,0.25791923353836271
20220820190000,405.94080458069766,20.092808150181209,0.49325578704317496,0,75.528311298245683,0,60.403394387872687,0,-10.803053964946258,0,32.671638594779608,3.4743384595143691,9.3795089981601940,1.3774771357474846,0.98055887009761300,0.85139206899938136,0.66708717951908658,-328.02151070788727,-5.7923030593320005E-002,103.01424762347311,188.34289936487872,225.39834709205789,282.17198381838949,93.759067467881948,84.423333333333332,19.300000000000011,3.4768217567940018,20.266930931091338,0.27774266802250402
20220820193000,400.02041499476667,20.191156766942434,0.32430550657060386,0,90.888071781148739,0,70.274592626893053,0,-17.348058567118748,0,26.866712349647599,2.9759417393392287,7.0930027460287981,1.0593985892373310,0.86441681881295862,0.70025380070196641,0.54109575153049128,-145.47016785338946,-0.13061097186021636,101.87551549266442,186.26093384977474,222.90676611189053,279.05282009297474,93.754557100043399,83.900000000000006,19.477666666666664,3.6335737694188355,20.445669984605615,0.31819453645519158
20220820200000,398.12578142464332,20.155277668118323,0.39871485860891637,0,65.645573802298500,0,51.495005608565158,0,-14.724147297321313,0,26.381586192388397,2.6582081972808731,7.5539204886846285,1.1640553880760556,0.90715434481053381,0.68018684330966550,0.59978631480311806,-274.26817130864970,-6.9275264094054170E-002,113.22688509131169,207.01485780974943,247.74391246583940,310.14598004511521,93.735638667534715,84.953333333333333,19.245333333333349,3.3471092161101299,20.282170715332086,0.21345142654323321
20220820203000,397.68618611531616,20.083874179948019,0.40310351657759924,0,66.089418322645656,0,43.267271414917232,0,-6.6801408074476276,0,37.805832441602035,3.5132467248916806,8.5926233836058898,1.4996234679300922,0.82537213316826452,0.68102449754410377,0.60331521262546617,-277.26296985159604,-6.8527001677034904E-002,113.64756452733282,207.78399398762068,248.66437203063046,311.29828619452820,93.736655783637161,83.393333333333331,19.486333333333334,3.7499420944280635,20.453350881788481,0.24812723026740607
20220820210000,398.80168930950390,20.053161389978555,0.48792149460076317,0,90.726811560850564,0,64.957829306727305,0,-13.042754135970723,0,27.771876579577537,3.3833723344302924,9.1494478002343378,1.3347645618059072,0.97444230821781030,0.81956888045568854,0.66396330574816942,-269.19558862141633,-7.0580651404063985E-002,105.80392888971448,193.44332644277415,231.50225563704646,289.81335300057782,93.731038777126741,82.409999999999997,19.651666666666642,4.0129956022764688,20.577882068210215,0.29457783504746393
20220820213000,404.16884290287112,19.864254560005826,0.48543247777820925,0,114.90305991517745,1,89.574229805382160,0,-21.399977543758560,1,27.943600450684841,3.3909597657452872,8.8866591093689209,1.2440114183787008,1.0038953220698037,0.79924821649927003,0.66145297345749832,-210.16641426306660,-9.0404549492944117E-002,107.62390296594018,196.77081950507514,235.48441497903431,294.79854395652887,93.745116387586805,85.043333333333337,18.996666666666670,3.2759098692225348,19.932311140272304,0.43064203123635103
20220820220000,409.66052984871283,19.474531588138920,0.44760800848547178,0,59.892127985573346,0,37.077697371966266,0,-12.370963850489927,1,31.038438842237042,3.4834047971786837,8.9808078685571591,1.3379201159888860,0.89035663370106388,0.78875259202481607,0.63409046428867533,-355.26568619237662,-5.3481100873084282E-002,105.15338023275392,192.25391601599779,230.07883513585688,288.03139944230975,93.777827988056629,87.900000000000006,18.158000000000015,2.5146651601119379,19.112627226543736,0.21174782755944538
20220820223000,412.55672019750654,19.353389260681954,0.33230645333037184,0,28.942362156478847,0,29.166818463559501,0,-5.1086088746344993,0,31.390759669359312,2.9334159895661793,7.4080387858371015,1.1270787215884785,0.81731393296499899,0.65338875820640963,0.54605020344562405,-469.53503175896248,-4.0465564260077871E-002,108.46849940534096,198.31501116651822,237.33241800572824,297.11202445393309,93.791847345217263,88.826666666666668,17.894333333333350,2.2839047684544380,18.871284824597524,0.13010021549011402